Location: Newark
(48.6461°N, 4.3644°W)
Time: 00:59:53
(UTC+00:00)

S-56A Canister/Altair - Pass Details

Date: 20 January 2020
Orbit: 633 x 2499 km, 38.9° (Epoch: 20 February)

Event Time Altitude Azimuth Distance (km) Brightness Sun altitude
Rises 23:55:27 0° 243° (WSW) 3,035 - -60.9°
Reaches altitude 10° 23:58:11 10° 229° (SW) 2,036 - -61.0°
Maximum altitude 00:01:49 24° 175° (S) 1,306 - -61.1°
Drops below altitude 10° 00:05:31 10° 121° (ESE) 2,086 - -61.3°
Sets 00:08:22 0° 107° (ESE) 3,129 - -61.4°
